TimeEST,TemperatureF,Dew PointF,Humidity,Sea Level PressureIn,VisibilityMPH,Wind Direction,Wind SpeedMPH,Gust SpeedMPH,PrecipitationIn,Events,Conditions,WindDirDegrees,DateUTC
12:55 AM,66.7,64.4,92,29.95,10.0,NW,3.5,-,N/A,,Scattered Clouds,320,2012-11-06 05:55:00
1:55 AM,68.2,62.6,82,29.94,10.0,Calm,Calm,-,N/A,,Scattered Clouds,0,2012-11-06 06:55:00
2:55 AM,66.9,64.2,91,29.92,10.0,Calm,Calm,-,N/A,,Partly Cloudy,0,2012-11-06 07:55:00
3:55 AM,66.2,63.5,91,29.92,10.0,Calm,Calm,-,N/A,,Partly Cloudy,0,2012-11-06 08:55:00
4:55 AM,66.2,63.3,90,29.92,10.0,Calm,Calm,-,N/A,,Clear,0,2012-11-06 09:55:00
5:55 AM,65.3,63.3,93,29.93,10.0,Calm,Calm,-,N/A,,Clear,0,2012-11-06 10:55:00
6:55 AM,65.7,63.7,93,29.95,10.0,Calm,Calm,-,N/A,,Clear,0,2012-11-06 11:55:00
7:55 AM,68.2,65.8,92,29.97,10.0,Calm,Calm,-,N/A,,Clear,0,2012-11-06 12:55:00
8:55 AM,71.6,68.0,88,29.98,10.0,Calm,Calm,-,N/A,,Clear,0,2012-11-06 13:55:00
9:55 AM,75.6,65.1,70,29.97,10.0,Calm,Calm,-,N/A,,Clear,0,2012-11-06 14:55:00
10:55 AM,78.8,64.8,62,29.96,10.0,SSW,6.9,-,N/A,,Clear,210,2012-11-06 15:55:00
11:55 AM,79.5,66.4,64,29.93,10.0,WSW,10.4,-,N/A,,Clear,240,2012-11-06 16:55:00
12:55 PM,81.1,64.0,56,29.90,10.0,SW,13.8,-,N/A,,Clear,230,2012-11-06 17:55:00
1:55 PM,82.6,64.2,54,29.87,10.0,SSW,12.7,-,N/A,,Scattered Clouds,210,2012-11-06 18:55:00
2:55 PM,81.5,63.9,55,29.86,10.0,SW,15.0,-,N/A,,Mostly Cloudy,220,2012-11-06 19:55:00
3:55 PM,81.5,60.3,48,29.86,10.0,West,17.3,-,N/A,,Clear,270,2012-11-06 20:55:00
4:55 PM,79.5,59.0,49,29.87,10.0,West,12.7,-,N/A,,Clear,270,2012-11-06 21:55:00
5:55 PM,75.9,63.1,64,29.88,10.0,West,8.1,-,N/A,,Clear,270,2012-11-06 22:55:00
6:55 PM,75.0,64.9,71,29.89,10.0,West,6.9,-,N/A,,Overcast,280,2012-11-06 23:55:00
7:55 PM,74.1,64.8,72,29.91,10.0,WSW,8.1,-,N/A,,Mostly Cloudy,250,2012-11-07 00:55:00
8:55 PM,70.2,65.3,85,29.91,10.0,SW,4.6,-,N/A,,Clear,220,2012-11-07 01:55:00
9:55 PM,68.2,64.9,89,29.91,10.0,SSW,4.6,-,N/A,,Clear,200,2012-11-07 02:55:00
10:55 PM,66.7,64.6,93,29.90,10.0,SW,5.8,-,N/A,,Partly Cloudy,220,2012-11-07 03:55:00
11:55 PM,68.0,66.2,94,29.90,10.0,SSW,3.5,-,N/A,,Mostly Cloudy,210,2012-11-07 04:55:00